Погода в Верхнеолонецком

Россия / Республика Карелия     61°27′29″N   33°15′14″E
темп.,
°C
ветер,
м/с
пор.,
м/с
влажн.,
%
обл.,
%
осадки,
мм/ч
давл.,
гПа
погр.,
м
20 июня, вс
вс2000:00+16ю24730 0.0 101860
03:00+15ю24750 0.0 101873
06:00+19ю26720 0.0 1017148
09:00+25юз46520 0.0 1017591
12:00+28юз57370 0.0 10161998
15:00+29юз58360 0.0 10162076
18:00+28юз48380 0.0 10152184
21:00+22юз26640 0.0 1015157
21 июня, пн
пн2100:00+18ююз25735 0.0 101576
03:00+16юз25735 0.0 101698
06:00+20ююз26680 0.0 1017156
09:00+26ююз34490 0.0 1017530
12:00+30юз46370 0.0 10162261
15:00+31юз57360 0.0 10162355
18:00+30юз37380 0.0 10151762
21:00+26зюз39599 0.0 1016314
22 июня, вт
вт2200:00+19ююз3118255 0.3 1017237
03:00+18ю379067 0.6 1017169
06:00+19ююз268426 0.0 1017186
09:00+27ююз345875 0.0 1017526
12:00+31ююз344148 0.0 10171423
15:00+33юз453331 0.0 10162178
18:00+32юз463315 0.0 10151832
21:00+25ю22565 0.0 101426
23 июня, ср
ср2300:00+22ю276571 0.0 1015136
03:00+21ю3871100 0.1 1015189
06:00+21ююз397854 0.0 1016244
09:00+26ююз476460 0.0 1016600
12:00+29юз58495 0.0 10161537
15:00+30юз594611 0.0 10161978
18:00+30зюз411452 0.0 10151824
21:00+25юз49654 0.0 1016575
24 июня, чт
чт2400:00+19юз310958 0.0 1017280
03:00+17юз289813 0.0 1017178
06:00+19юз276818 0.0 1017217
09:00+24юз474618 0.0 1017623
12:00+27зюз454183 0.0 10161160
15:00+28юз454013 0.0 10161479
18:00+28з23443 0.0 10141323
21:00+22ююз2472100 0.3 1014165